Location: Flensburg
(54.6357°N, 9.5142°E)
Time: 03:14:47
(UTC+02:00)

ISS - Pass Details

Date: 04 January 2018
Orbit: 402 x 408 km, 51.6° (Epoch: 16 July)

Event Time Altitude Azimuth Distance (km) Brightness Sun altitude
Exits shadow 05:33:51 26° 120° (ESE) 868 -1.6 -25.9°
Drops below altitude 10° 05:35:46 10° 95° (E) 1,501 0.1 -25.7°
Enters shadow 06:31:24 -70° 268° (W) 12,385 3.6 -17.7°
Maximum altitude 07:09:02 51° 181° (S) 536 -3.1 -12.5°
